Location: Antioch Baptist Church
(32.6696°N, 85.7327°W)
Time: 10:11:28
(UTC+00:00)

Cosmos-2242 - Pass Details

Date: 04 November 2020
Orbit: 592 x 616 km, 82.5° (Epoch: 26 November)

Event Time Altitude Azimuth Distance (km) Brightness Sun altitude
Rises 00:35:07 0° 203° (SSW) 2,816 6.8 -22.5°
Reaches altitude 10° 00:37:26 10° 211° (SSW) 1,921 6.0 -23.0°
Maximum altitude 00:41:23 38° 280° (W) 919 4.4 -23.8°
Drops below altitude 10° 00:45:24 10° 349° (NNW) 1,945 5.7 -24.7°
Sets 00:47:45 0° 357° (N) 2,856 6.5 -25.2°
